Location: Buckland
(65.9785°N, 161.1281°W)
Time: 22:11:04
(UTC+00:00)

Transit 4A - Pass Details

Date: 04 December 2020
Orbit: 864 x 981 km, 66.8° (Epoch: 19 January)

Event Time Altitude Azimuth Distance (km) Brightness Sun altitude
Rises 03:42:38 0° 309° (NW) 3,691 11.5 -15.2°
Reaches altitude 10° 03:46:53 10° 283° (WNW) 2,726 11.2 -15.6°
Maximum altitude 03:49:23 13° 259° (W) 2,525 11.4 -15.8°
Drops below altitude 10° 03:51:53 10° 236° (SW) 2,698 11.5 -16.0°
Sets 03:56:04 0° 209° (SSW) 3,614 11.7 -16.4°
